Terminal Aerodrome Forecast
Issued by NWS

Home | Current Version | Previous Version | Text Only | Print | Product List | Glossary On
Versions: 1 2 3 4 5 6 7 8 9 10 11 12 13 14 15 16 17 18 19
468
FTAK31 PAJN 300520
TAFAKT
TAF
PAKT 300520Z 3006/3106 32005KT P6SM VCSH SCT025 OVC040
     FM300900 32005KT P6SM VCSH BKN015 OVC022
     FM301800 34007KT P6SM VCSH SCT015 BKN025 OVC060
     FM302100 34010KT P6SM SCT030 BKN060
      AMD LTD TO CLD VIS AND WIND 3006/3015=

USA.gov is the U.S. government's official web portal to all federal, state and local government web resources and services.